Location: ?
(35.4996°N, 139.3166°E)
Time: 17:23:55
(UTC+00:00)

Cosmos 1954 - Visible Passes

Search period start: 08 September 2024 00:00
Search period end: 18 September 2024 00:00
Orbit: 764 x 788 km, 74.0° (Epoch: 07 September)

Date Brightness Start Highest point End Pass type
(mag) Time Alt. Az. Time Alt. Az. Time Alt. Az.
08 Sep 7.7 11:04:58 10° NNE 11:06:20 13° NE 11:06:20 13° NE visible
08 Sep 8.0 12:45:29 10° NNW 12:46:46 18° NNW 12:46:46 18° NNW visible
09 Sep 7.5 12:10:52 10° NNW 12:12:55 24° NNW 12:12:55 24° NNW visible
10 Sep 7.1 11:36:29 10° N 11:39:06 27° N 11:39:06 27° N visible
11 Sep 7.0 11:02:20 10° N 11:05:20 25° NE 11:05:20 25° NE visible
11 Sep 8.2 12:44:33 10° NW 12:45:46 16° NW 12:45:46 16° NW visible
12 Sep 7.2 10:28:32 10° NNE 10:31:35 18° NE 10:31:35 18° NE visible
12 Sep 7.4 12:09:34 10° NNW 12:12:03 26° NW 12:12:03 26° NW visible
13 Sep 7.5 09:55:43 10° NE 09:57:21 11° ENE 09:57:54 11° ENE visible
13 Sep 6.6 11:34:52 10° NNW 11:38:20 41° NNW 11:38:20 41° NNW visible
14 Sep 6.0 11:00:24 10° N 11:04:42 50° NNE 11:04:42 50° NNE visible
14 Sep 8.4 12:44:39 10° WNW 12:45:10 11° WNW 12:45:10 11° WNW visible
15 Sep 6.2 10:26:09 10° N 10:31:03 35° ENE 10:31:07 35° ENE visible
15 Sep 7.7 12:08:49 10° NW 12:11:34 21° WNW 12:11:34 21° WNW visible
16 Sep 6.8 09:52:11 10° NNE 09:56:18 22° ENE 09:57:36 20° E visible
16 Sep 6.7 11:33:41 10° NNW 11:38:03 39° W 11:38:03 39° W visible
17 Sep 7.3 09:18:48 10° NNE 09:21:27 14° ENE 09:24:06 10° E visible
17 Sep 5.7 10:58:53 10° NNW 11:04:13 69° WSW 11:04:38 66° SW visible
